Weather in Posyolok Imeni Karla Libknekhta

Russia / Kursk Oblast     51°37′08″N   35°28′37″E
temp.,
°C
wind,
m/s
gust,
m/s
humid.,
%
clouds,
%
prec.,
mm/h
press.,
hPa
HPBL,
m
10 may, mon
mon1000:00+3nw410825 0.0 1024195
03:00+2nw411825 0.0 1025205
06:00+3nw39800 0.0 1026182
09:00+9n58620 0.0 1026574
12:00+12n79485 0.0 10251911
15:00+13n810495 0.0 10241939
18:00+11n71261100 0.0 10231451
21:00+9n71458100 0.0 1023796
11 may, tue
tue1100:00+8nne71571100 0.1 1022621
03:00+8nne71782100 0.4 1021523
06:00+8nne61686100 0.1 1020479
09:00+13nne7117955 0.1 1018446
12:00+16ne9127299 0.0 10181162
15:00+9e61391100 0.9 1020595
18:00+12e711735 0.1 10211264
21:00+9e7138011 0.1 1022828
12 may, wed
wed1200:00+7e614816 0.0 1023783
03:00+7e6138228 0.0 1023781
06:00+6ene51387100 0.0 1023367
09:00+11ene71270100 0.0 1022871
12:00+13ene61064100 0.0 10191386
15:00+10ese6983100 0.4 1018941
18:00+9ene51093100 0.8 1017673
21:00+9ese51093100 4.3 1016585
13 may, thu
thu1300:00+8se5129693 0.8 1015508
03:00+7se4109732 0.8 1016344
06:00+6se3898100 0.0 1017248
09:00+12sse4779100 0.0 1017564
12:00+16sse57611 0.0 10161481
15:00+18sse575721 0.0 10161526
18:00+17ese3778100 0.2 1016302
21:00+13e41089100 0.2 1016181
14 may, fri
fri1400:00+13ese51288100 0.0 1015229
03:00+12ese5139169 0.0 1014255
06:00+13ese61488100 0.0 1013341
09:00+18se81480100 0.2 1012695
12:00+22sse81270100 0.0 10121128
15:00+23sse71169100 0.1 10111568
18:00+21s6107794 0.8 1011725
21:00+17ssw339146 1.1 101235